| time (UTC) | temp F | wind direction | speed MPH | gust MPH | rain 1hr in | rain 24hr in | rain mn in | humidity % | barometer mb |
| 20260509185159 | 85 | 52 | 2.0 | 2.0 | 0.00 | 0.00 | 0.00 | 45 | 1012.1 |
| 20260509184657 | 85 | 322 | 1.0 | 2.0 | 0.00 | 0.00 | 0.00 | 39 | 1012.2 |
| 20260509184154 | 85 | 347 | 2.0 | 2.0 | 0.00 | 0.00 | 0.00 | 44 | 1012.2 |
| 20260509183651 | 84 | 189 | 0.0 | 1.0 | 0.00 | 0.00 | 0.00 | 52 | 1012.1 |
| 20260509183146 | 84 | 236 | 0.0 | 0.0 | 0.00 | 0.00 | 0.00 | 53 | 1012.2 |
| 20260509182642 | 84 | 122 | 1.0 | 2.0 | 0.00 | 0.00 | 0.00 | 56 | 1012.4 |
| 20260509182139 | 84 | 128 | 4.0 | 4.0 | 0.00 | 0.00 | 0.00 | 55 | 1012.6 |
| 20260509181637 | 83 | 214 | 2.0 | 3.0 | 0.00 | 0.00 | 0.00 | 60 | 1012.5 |
| 20260509181135 | 83 | 183 | 1.0 | 1.0 | 0.00 | 0.00 | 0.00 | 57 | 1012.7 |
| 20260509180631 | 83 | 169 | 0.0 | 1.0 | 0.00 | 0.00 | 0.00 | 57 | 1012.7 |
| 20260509180127 | 83 | 183 | 3.0 | 4.0 | 0.00 | 0.00 | 0.00 | 55 | 1012.7 |
| 20260509175623 | 84 | 115 | 1.0 | 2.0 | 0.00 | 0.00 | 0.00 | 60 | 1012.7 |
| 20260509175120 | 82 | 217 | 0.0 | 0.0 | 0.00 | 0.00 | 0.00 | 65 | 1012.8 |
| 20260509174616 | 82 | 168 | 0.0 | 0.0 | 0.00 | 0.00 | 0.00 | 63 | 1013.0 |
| 20260509174111 | 82 | 65 | 2.0 | 2.0 | 0.00 | 0.00 | 0.00 | 63 | 1013.3 |
| 20260509173607 | 81 | 8 | 2.0 | 3.0 | 0.00 | 0.00 | 0.00 | 65 | 1013.2 |
| 20260509173103 | 81 | 118 | 0.0 | 0.0 | 0.00 | 0.00 | 0.00 | 66 | 1013.1 |
| 20260509172600 | 81 | 297 | 1.0 | 1.0 | 0.00 | 0.00 | 0.00 | 65 | 1013.2 |
| 20260509172056 | 81 | 329 | 2.0 | 2.0 | 0.00 | 0.00 | 0.00 | 64 | 1013.4 |
| 20260509171552 | 80 | 131 | 0.0 | 1.0 | 0.00 | 0.00 | 0.00 | 66 | 1013.5 |
| 20260509171048 | 81 | 164 | 4.0 | 4.0 | 0.00 | 0.00 | 0.00 | 63 | 1013.5 |
| 20260509170544 | 80 | 49 | 2.0 | 3.0 | 0.00 | 0.00 | 0.00 | 66 | 1013.5 |
| 20260509170041 | 80 | 49 | 1.0 | 2.0 | 0.00 | 0.00 | 0.00 | 67 | 1013.6 |
| 20260509165539 | 80 | 242 | 1.0 | 2.0 | 0.00 | 0.00 | 0.00 | 69 | 1013.6 |
| 20260509165035 | 79 | 328 | 2.0 | 2.0 | 0.00 | 0.00 | 0.00 | 67 | 1013.6 |
| 20260509164531 | 79 | 91 | 2.0 | 2.0 | 0.00 | 0.00 | 0.00 | 67 | 1013.7 |
| 20260509164027 | 80 | 169 | 2.0 | 2.0 | 0.00 | 0.00 | 0.00 | 68 | 1013.5 |
| 20260509163525 | 79 | 233 | 1.0 | 2.0 | 0.00 | 0.00 | 0.00 | 66 | 1013.7 |
| 20260509163020 | 79 | 172 | 0.0 | 1.0 | 0.00 | 0.00 | 0.00 | 69 | 1013.7 |
| 20260509162518 | 78 | 30 | 2.0 | 2.0 | 0.00 | 0.00 | 0.00 | 68 | 1013.8 |
| 20260509162013 | 77 | 332 | 2.0 | 2.0 | 0.00 | 0.00 | 0.00 | 68 | 1013.7 |
| 20260509161511 | 78 | 84 | 1.0 | 2.0 | 0.00 | 0.00 | 0.00 | 69 | 1013.8 |
| 20260509161010 | 78 | 97 | 2.0 | 2.0 | 0.00 | 0.00 | 0.00 | 72 | 1013.7 |
| 20260509160506 | 78 | 344 | 2.0 | 2.0 | 0.00 | 0.00 | 0.00 | 68 | 1013.8 |
| 20260509160001 | 77 | 141 | 0.0 | 0.0 | 0.00 | 0.00 | 0.00 | 69 | 1013.9 |
| 20260509155458 | 75 | 275 | 1.0 | 1.0 | 0.00 | 0.00 | 0.00 | 70 | 1013.9 |
| 20260509154955 | 76 | 314 | 2.0 | 2.0 | 0.00 | 0.00 | 0.00 | 71 | 1013.8 |
| 20260509154451 | 77 | 254 | 0.0 | 1.0 | 0.00 | 0.00 | 0.00 | 70 | 1013.6 |
| 20260509153949 | 77 | 197 | 0.0 | 1.0 | 0.00 | 0.00 | 0.00 | 70 | 1013.7 |
| 20260509153445 | 76 | 185 | 2.0 | 3.0 | 0.00 | 0.00 | 0.00 | 72 | 1013.8 |
| 20260509152942 | 75 | 178 | 1.0 | 1.0 | 0.00 | 0.00 | 0.00 | 73 | 1013.8 |
| 20260509152438 | 75 | 179 | 0.0 | 1.0 | 0.00 | 0.00 | 0.00 | 73 | 1013.8 |
| 20260509151935 | 74 | 233 | 1.0 | 1.0 | 0.00 | 0.00 | 0.00 | 75 | 1013.8 |
| 20260509151431 | 75 | 298 | 2.0 | 2.0 | 0.00 | 0.00 | 0.00 | 72 | 1013.7 |
| 20260509150930 | 75 | 133 | 1.0 | 2.0 | 0.00 | 0.00 | 0.00 | 73 | 1013.7 |
| 20260509150427 | 74 | 114 | 1.0 | 1.0 | 0.00 | 0.00 | 0.00 | 73 | 1013.8 |
| 20260509145925 | 74 | 179 | 1.0 | 1.0 | 0.00 | 0.00 | 0.00 | 74 | 1013.7 |
| 20260509145425 | 73 | 222 | 1.0 | 2.0 | 0.00 | 0.00 | 0.00 | 74 | 1013.7 |
| 20260509144921 | 74 | 166 | 0.0 | 0.0 | 0.00 | 0.00 | 0.00 | 75 | 1013.9 |
| 20260509144418 | 73 | 175 | 0.0 | 1.0 | 0.00 | 0.00 | 0.00 | 76 | 1013.6 |
| 20260509143915 | 73 | 271 | 1.0 | 1.0 | 0.00 | 0.00 | 0.00 | 76 | 1013.6 |
| 20260509143412 | 72 | 162 | 0.0 | 0.0 | 0.00 | 0.00 | 0.00 | 76 | 1013.4 |
| 20260509142908 | 72 | 158 | 0.0 | 1.0 | 0.00 | 0.00 | 0.00 | 78 | 1013.6 |
| 20260509142405 | 71 | 178 | 0.0 | 0.0 | 0.00 | 0.00 | 0.00 | 79 | 1013.5 |
| 20260509141901 | 70 | 162 | 0.0 | 1.0 | 0.00 | 0.00 | 0.00 | 79 | 1013.5 |
| 20260509141358 | 70 | 174 | 1.0 | 1.0 | 0.00 | 0.00 | 0.00 | 80 | 1013.7 |
| 20260509140854 | 69 | 298 | 2.0 | 2.0 | 0.00 | 0.00 | 0.00 | 81 | 1013.7 |
| 20260509140351 | 69 | 184 | 0.0 | 1.0 | 0.00 | 0.00 | 0.00 | 82 | 1013.6 |
| 20260509135849 | 68 | 177 | 1.0 | 1.0 | 0.00 | 0.00 | 0.00 | 82 | 1013.6 |
| 20260509135347 | 68 | 158 | 0.0 | 1.0 | 0.00 | 0.00 | 0.00 | 83 | 1013.9 |
| 20260509134844 | 67 | 169 | 0.0 | 0.0 | 0.00 | 0.00 | 0.00 | 83 | 1013.7 |
| 20260509134341 | 67 | 188 | 0.0 | 0.0 | 0.00 | 0.00 | 0.00 | 84 | 1013.8 |
| 20260509133837 | 66 | 180 | 0.0 | 0.0 | 0.00 | 0.00 | 0.00 | 85 | 1013.6 |
| 20260509133334 | 66 | 172 | 0.0 | 0.0 | 0.00 | 0.00 | 0.00 | 86 | 1013.6 |
| 20260509132833 | 66 | 190 | 0.0 | 0.0 | 0.00 | 0.00 | 0.00 | 87 | 1013.7 |
| 20260509132331 | 65 | 213 | 0.0 | 1.0 | 0.00 | 0.00 | 0.00 | 87 | 1013.7 |
| 20260509131828 | 65 | 197 | 0.0 | 0.0 | 0.00 | 0.00 | 0.00 | 90 | 1013.8 |
| 20260509131324 | 65 | 206 | 0.0 | 0.0 | 0.00 | 0.00 | 0.00 | 91 | 1013.7 |
| 20260509130821 | 64 | 166 | 0.0 | 0.0 | 0.00 | 0.00 | 0.00 | 92 | 1013.5 |
| 20260509130317 | 64 | 175 | 0.0 | 1.0 | 0.00 | 0.00 | 0.00 | 92 | 1013.5 |
| 20260509125813 | 64 | 173 | 0.0 | 0.0 | 0.00 | 0.00 | 0.00 | 93 | 1013.7 |
| 20260509125310 | 63 | 166 | 0.0 | 0.0 | 0.00 | 0.00 | 0.00 | 93 | 1013.6 |
| 20260509124806 | 62 | 174 | 0.0 | 0.0 | 0.00 | 0.00 | 0.00 | 93 | 1013.6 |
| 20260509124303 | 62 | 222 | 1.0 | 1.0 | 0.00 | 0.00 | 0.00 | 93 | 1013.6 |
| 20260509123801 | 61 | 176 | 0.0 | 0.0 | 0.00 | 0.00 | 0.00 | 94 | 1013.6 |
| 20260509123258 | 61 | 174 | 0.0 | 0.0 | 0.00 | 0.00 | 0.00 | 94 | 1013.7 |
| 20260509122754 | 60 | 191 | 0.0 | 1.0 | 0.00 | 0.00 | 0.00 | 94 | 1013.6 |
| 20260509122251 | 60 | 204 | 1.0 | 1.0 | 0.00 | 0.00 | 0.00 | 94 | 1013.6 |
| 20260509121748 | 59 | 185 | 0.0 | 0.0 | 0.00 | 0.00 | 0.00 | 94 | 1013.3 |
| 20260509121245 | 59 | 181 | 0.0 | 0.0 | 0.00 | 0.00 | 0.00 | 94 | 1013.2 |
| 20260509120743 | 59 | 171 | 1.0 | 1.0 | 0.00 | 0.00 | 0.00 | 94 | 1012.9 |
| 20260509120240 | 59 | 181 | 0.0 | 1.0 | 0.00 | 0.00 | 0.00 | 94 | 1013.1 |
| 20260509115738 | 59 | 180 | 0.0 | 0.0 | 0.00 | 0.00 | 0.00 | 94 | 1012.7 |
| 20260509115235 | 59 | 187 | 0.0 | 0.0 | 0.00 | 0.00 | 0.00 | 94 | 1012.6 |
| 20260509114734 | 59 | 186 | 0.0 | 0.0 | 0.00 | 0.00 | 0.00 | 93 | 1012.6 |
| 20260509114232 | 59 | 187 | 1.0 | 1.0 | 0.00 | 0.00 | 0.00 | 93 | 1012.5 |
| 20260509113730 | 59 | 193 | 0.0 | 0.0 | 0.00 | 0.00 | 0.00 | 93 | 1012.5 |
| 20260509113227 | 59 | 195 | 0.0 | 0.0 | 0.00 | 0.00 | 0.00 | 93 | 1012.5 |
| 20260509112724 | 59 | 196 | 0.0 | 0.0 | 0.00 | 0.00 | 0.00 | 93 | 1012.5 |
| 20260509112221 | 59 | 200 | 0.0 | 0.0 | 0.00 | 0.00 | 0.00 | 93 | 1012.1 |
| 20260509111718 | 60 | 170 | 0.0 | 0.0 | 0.00 | 0.00 | 0.00 | 93 | 1012.1 |
| 20260509111215 | 60 | 183 | 0.0 | 0.0 | 0.00 | 0.00 | 0.00 | 93 | 1012.0 |
| 20260509110712 | 60 | 193 | 0.0 | 0.0 | 0.00 | 0.00 | 0.00 | 93 | 1012.0 |
| 20260509110209 | 60 | 186 | 0.0 | 0.0 | 0.00 | 0.00 | 0.00 | 93 | 1012.0 |
| 20260509105707 | 60 | 195 | 0.0 | 0.0 | 0.00 | 0.00 | 0.00 | 93 | 1011.7 |
| 20260509105204 | 60 | 183 | 0.0 | 0.0 | 0.00 | 0.00 | 0.00 | 93 | 1011.7 |
| 20260509104701 | 60 | 180 | 0.0 | 0.0 | 0.00 | 0.00 | 0.00 | 93 | 1011.8 |
| 20260509104158 | 61 | 182 | 0.0 | 0.0 | 0.00 | 0.00 | 0.00 | 93 | 1011.7 |
| 20260509103656 | 61 | 170 | 0.0 | 0.0 | 0.00 | 0.00 | 0.00 | 93 | 1011.5 |
| 20260509103153 | 61 | 190 | 0.0 | 0.0 | 0.00 | 0.00 | 0.00 | 93 | 1011.6 |
| 20260509102651 | 61 | 174 | 0.0 | 0.0 | 0.00 | 0.00 | 0.00 | 93 | 1011.6 |
| 20260509102148 | 61 | 194 | 0.0 | 0.0 | 0.00 | 0.00 | 0.00 | 92 | 1011.4 |
| 20260509101644 | 61 | 175 | 2.0 | 2.0 | 0.00 | 0.00 | 0.00 | 92 | 1011.4 |
| 20260509101141 | 62 | 173 | 0.0 | 0.0 | 0.00 | 0.00 | 0.00 | 92 | 1011.6 |
| 20260509100638 | 62 | 208 | 0.0 | 0.0 | 0.00 | 0.00 | 0.00 | 92 | 1011.5 |
| 20260509100135 | 62 | 176 | 0.0 | 0.0 | 0.00 | 0.00 | 0.00 | 92 | 1011.5 |
| 20260509095632 | 62 | 176 | 0.0 | 0.0 | 0.00 | 0.00 | 0.00 | 92 | 1011.5 |
| 20260509095129 | 62 | 191 | 0.0 | 0.0 | 0.00 | 0.00 | 0.00 | 92 | 1011.8 |
| 20260509094625 | 62 | 225 | 0.0 | 0.0 | 0.00 | 0.00 | 0.00 | 92 | 1011.6 |
| 20260509094123 | 62 | 357 | 0.0 | 1.0 | 0.00 | 0.00 | 0.00 | 92 | 1011.6 |
| 20260509093621 | 62 | 227 | 0.0 | 0.0 | 0.00 | 0.00 | 0.00 | 92 | 1011.6 |
| 20260509093118 | 62 | 224 | 0.0 | 0.0 | 0.00 | 0.00 | 0.00 | 92 | 1011.7 |
| 20260509092615 | 62 | 220 | 0.0 | 0.0 | 0.00 | 0.00 | 0.00 | 92 | 1011.4 |
| 20260509092114 | 62 | 232 | 0.0 | 0.0 | 0.00 | 0.00 | 0.00 | 92 | 1011.4 |
| 20260509091612 | 62 | 192 | 0.0 | 0.0 | 0.00 | 0.00 | 0.00 | 92 | 1011.4 |
| 20260509091108 | 62 | 201 | 0.0 | 0.0 | 0.00 | 0.00 | 0.00 | 91 | 1011.3 |
| 20260509090605 | 62 | 48 | 0.0 | 0.0 | 0.00 | 0.00 | 0.00 | 91 | 1011.4 |
| 20260509090058 | 62 | 158 | 0.0 | 0.0 | 0.00 | 0.00 | 0.00 | 91 | 1011.5 |
| 20260509085554 | 62 | 217 | 0.0 | 0.0 | 0.00 | 0.00 | 0.00 | 91 | 1011.7 |
| 20260509085050 | 62 | 174 | 0.0 | 0.0 | 0.00 | 0.00 | 0.00 | 91 | 1011.9 |
| 20260509084547 | 63 | 194 | 0.0 | 0.0 | 0.00 | 0.00 | 0.00 | 91 | 1011.8 |
| 20260509084044 | 63 | 296 | 1.0 | 1.0 | 0.00 | 0.00 | 0.00 | 91 | 1011.8 |
| 20260509083542 | 63 | 328 | 2.0 | 2.0 | 0.00 | 0.00 | 0.00 | 91 | 1011.9 |
| 20260509083038 | 63 | 253 | 0.0 | 0.0 | 0.00 | 0.00 | 0.00 | 91 | 1011.9 |
| 20260509082536 | 63 | 213 | 0.0 | 0.0 | 0.00 | 0.00 | 0.00 | 91 | 1011.9 |
| 20260509082033 | 63 | 212 | 0.0 | 0.0 | 0.00 | 0.00 | 0.00 | 91 | 1011.8 |
| 20260509081530 | 63 | 213 | 0.0 | 0.0 | 0.00 | 0.00 | 0.00 | 90 | 1012.0 |
| 20260509081027 | 63 | 292 | 0.0 | 1.0 | 0.00 | 0.00 | 0.00 | 90 | 1011.7 |
| 20260509080525 | 64 | 140 | 0.0 | 0.0 | 0.00 | 0.00 | 0.00 | 90 | 1011.8 |
| 20260509080023 | 64 | 218 | 0.0 | 0.0 | 0.00 | 0.00 | 0.00 | 90 | 1011.7 |
| 20260509075520 | 64 | 200 | 0.0 | 0.0 | 0.00 | 0.00 | 0.00 | 90 | 1011.8 |
| 20260509075018 | 64 | 50 | 0.0 | 1.0 | 0.00 | 0.00 | 0.00 | 90 | 1011.7 |
| 20260509074515 | 64 | 331 | 2.0 | 3.0 | 0.00 | 0.00 | 0.00 | 90 | 1011.8 |
| 20260509074011 | 64 | 4 | 3.0 | 4.0 | 0.00 | 0.00 | 0.00 | 90 | 1011.5 |
| 20260509073508 | 64 | 351 | 3.0 | 4.0 | 0.00 | 0.00 | 0.00 | 90 | 1011.5 |
| 20260509073004 | 64 | 4 | 3.0 | 3.0 | 0.00 | 0.00 | 0.00 | 90 | 1011.5 |
| 20260509072501 | 64 | 355 | 2.0 | 3.0 | 0.00 | 0.00 | 0.00 | 90 | 1011.4 |
| 20260509071958 | 65 | 323 | 4.0 | 6.0 | 0.00 | 0.00 | 0.00 | 89 | 1011.4 |
| 20260509071454 | 65 | 254 | 3.0 | 4.0 | 0.00 | 0.00 | 0.00 | 89 | 1011.3 |
| 20260509070952 | 66 | 7 | 2.0 | 3.0 | 0.00 | 0.00 | 0.00 | 89 | 1011.3 |
| 20260509070448 | 66 | 346 | 3.0 | 4.0 | 0.00 | 0.00 | 0.00 | 89 | 1011.1 |
| 20260509065943 | 66 | 349 | 2.0 | 2.0 | 0.00 | 0.00 | 0.00 | 89 | 1010.7 |
| 20260509065440 | 66 | 320 | 1.0 | 1.0 | 0.00 | 0.00 | 0.00 | 89 | 1010.4 |
| 20260509064936 | 66 | 344 | 2.0 | 3.0 | 0.00 | 0.00 | 0.00 | 89 | 1010.6 |
| 20260509064434 | 66 | 340 | 4.0 | 4.0 | 0.00 | 0.00 | 0.00 | 88 | 1010.5 |
| 20260509063932 | 66 | 337 | 2.0 | 3.0 | 0.00 | 0.00 | 0.00 | 88 | 1010.5 |
| 20260509063427 | 65 | 205 | 2.0 | 3.0 | 0.00 | 0.00 | 0.00 | 88 | 1010.2 |
| 20260509062924 | 65 | 122 | 2.0 | 3.0 | 0.00 | 0.00 | 0.00 | 88 | 1010.2 |
| 20260509062422 | 66 | 322 | 2.0 | 2.0 | 0.00 | 0.00 | 0.00 | 88 | 1010.1 |
| 20260509061919 | 65 | 98 | 1.0 | 2.0 | 0.00 | 0.00 | 0.00 | 88 | 1010.1 |
| 20260509061417 | 65 | 8 | 6.0 | 8.0 | 0.00 | 0.00 | 0.00 | 88 | 1010.1 |
| 20260509060913 | 65 | 190 | 3.0 | 3.0 | 0.00 | 0.00 | 0.00 | 88 | 1010.4 |
| 20260509060411 | 65 | 357 | 2.0 | 3.0 | 0.00 | 0.00 | 0.00 | 88 | 1010.7 |
| 20260509055906 | 65 | 163 | 5.0 | 8.0 | 0.00 | 0.00 | 0.00 | 89 | 1010.7 |
| 20260509055401 | 64 | 156 | 3.0 | 3.0 | 0.00 | 0.00 | 0.00 | 89 | 1011.3 |
| 20260509054858 | 64 | 212 | 1.0 | 1.0 | 0.00 | 0.00 | 0.00 | 90 | 1012.1 |
| 20260509054355 | 64 | 57 | 0.0 | 0.0 | 0.00 | 0.00 | 0.00 | 89 | 1011.9 |
| 20260509053853 | 65 | 185 | 0.0 | 1.0 | 0.00 | 0.00 | 0.00 | 89 | 1011.5 |
| 20260509053350 | 65 | 171 | 2.0 | 2.0 | 0.00 | 0.00 | 0.00 | 88 | 1012.0 |
| 20260509052849 | 65 | 196 | 0.0 | 0.0 | 0.00 | 0.00 | 0.00 | 88 | 1012.3 |
| 20260509052346 | 65 | 330 | 1.0 | 2.0 | 0.00 | 0.00 | 0.00 | 87 | 1011.8 |
| 20260509051843 | 66 | 233 | 1.0 | 1.0 | 0.00 | 0.00 | 0.00 | 87 | 1012.5 |
| 20260509051341 | 66 | 144 | 1.0 | 1.0 | 0.00 | 0.00 | 0.00 | 87 | 1012.3 |
| 20260509050838 | 67 | 323 | 4.0 | 6.0 | 0.00 | 0.00 | 0.00 | 87 | 1012.5 |
| 20260509050335 | 67 | 160 | 0.0 | 1.0 | 0.00 | 0.00 | 0.00 | 86 | 1012.2 |
| 20260509045831 | 69 | 211 | 3.0 | 4.0 | 0.00 | 0.34 | 0.34 | 85 | 1012.1 |
| 20260509045328 | 69 | 186 | 11.0 | 16.0 | 0.00 | 0.34 | 0.34 | 85 | 1011.5 |
| 20260509044826 | 69 | 217 | 4.0 | 6.0 | 0.00 | 0.34 | 0.34 | 85 | 1011.7 |
| 20260509044323 | 68 | 224 | 11.0 | 16.0 | 0.00 | 0.34 | 0.34 | 86 | 1011.1 |
| 20260509043819 | 68 | 221 | 1.0 | 1.0 | 0.00 | 0.34 | 0.34 | 89 | 1011.9 |
| 20260509043316 | 68 | 219 | 1.0 | 1.0 | 0.00 | 0.34 | 0.34 | 88 | 1011.1 |
| 20260509042811 | 68 | 156 | 10.0 | 11.0 | 0.00 | 0.34 | 0.34 | 89 | 1011.3 |
| 20260509042308 | 68 | 153 | 2.0 | 2.0 | 0.00 | 0.34 | 0.34 | 88 | 1011.5 |
| 20260509041804 | 68 | 167 | 13.0 | 18.0 | 0.00 | 0.34 | 0.34 | 88 | 1011.1 |
| 20260509041302 | 68 | 205 | 9.0 | 11.0 | 0.00 | 0.34 | 0.34 | 88 | 1010.2 |
| 20260509040800 | 68 | 157 | 11.0 | 15.0 | 0.00 | 0.34 | 0.34 | 88 | 1010.5 |
| 20260509040257 | 68 | 178 | 11.0 | 15.0 | 0.00 | 0.34 | 0.34 | 88 | 1010.6 |
| 20260509035754 | 67 | 179 | 13.0 | 16.0 | 0.05 | 0.34 | 0.34 | 89 | 1010.6 |
| 20260509035251 | 68 | 176 | 8.0 | 10.0 | 0.42 | 0.34 | 0.34 | 89 | 1011.5 |
| 20260509034747 | 68 | 152 | 7.0 | 8.0 | 1.16 | 0.33 | 0.33 | 88 | 1011.6 |
| 20260509034245 | 69 | 177 | 6.0 | 7.0 | 0.78 | 0.27 | 0.27 | 85 | 1013.1 |
| 20260509033742 | 70 | 126 | 0.0 | 1.0 | 0.00 | 0.14 | 0.14 | 80 | 1014.6 |
| 20260509033239 | 70 | 346 | 2.0 | 3.0 | 0.00 | 0.14 | 0.14 | 81 | 1014.4 |
| 20260509032736 | 69 | 340 | 5.0 | 6.0 | 0.00 | 0.14 | 0.14 | 82 | 1014.2 |
| 20260509032233 | 69 | 331 | 2.0 | 3.0 | 0.00 | 0.14 | 0.14 | 82 | 1013.2 |
| 20260509031731 | 69 | 183 | 1.0 | 1.0 | 0.00 | 0.14 | 0.14 | 82 | 1012.2 |
| 20260509031228 | 69 | 175 | 3.0 | 4.0 | 0.00 | 0.14 | 0.14 | 82 | 1011.8 |
| 20260509030726 | 69 | 142 | 1.0 | 2.0 | 0.00 | 0.14 | 0.14 | 82 | 1011.6 |
| 20260509030223 | 69 | 171 | 1.0 | 2.0 | 0.00 | 0.14 | 0.14 | 82 | 1011.4 |
| 20260509025720 | 69 | 158 | 2.0 | 2.0 | 0.00 | 0.14 | 0.14 | 82 | 1011.0 |
| 20260509025215 | 69 | 152 | 2.0 | 2.0 | 0.00 | 0.14 | 0.14 | 81 | 1011.1 |
| 20260509024711 | 70 | 151 | 4.0 | 6.0 | 0.00 | 0.14 | 0.14 | 80 | 1011.5 |
| 20260509024207 | 70 | 147 | 1.0 | 1.0 | 0.00 | 0.14 | 0.14 | 80 | 1011.3 |
| 20260509023705 | 70 | 176 | 4.0 | 4.0 | 0.00 | 0.14 | 0.14 | 80 | 1011.2 |
| 20260509023202 | 70 | 161 | 4.0 | 6.0 | 0.00 | 0.14 | 0.14 | 79 | 1010.7 |
| 20260509022657 | 70 | 162 | 2.0 | 2.0 | 0.00 | 0.14 | 0.14 | 79 | 1010.6 |
| 20260509022156 | 70 | 185 | 4.0 | 4.0 | 0.00 | 0.14 | 0.14 | 79 | 1010.5 |
| 20260509021652 | 70 | 133 | 6.0 | 9.0 | 0.00 | 0.14 | 0.14 | 79 | 1010.1 |
| 20260509021150 | 70 | 157 | 5.0 | 6.0 | 0.00 | 0.14 | 0.14 | 79 | 1010.1 |
| 20260509020648 | 70 | 190 | 9.0 | 11.0 | 0.00 | 0.14 | 0.14 | 78 | 1009.8 |
| 20260509020144 | 71 | 161 | 6.0 | 8.0 | 0.00 | 0.14 | 0.14 | 78 | 1010.4 |
| 20260509015643 | 71 | 173 | 4.0 | 6.0 | 0.00 | 0.14 | 0.14 | 78 | 1010.6 |
| 20260509015140 | 71 | 145 | 4.0 | 6.0 | 0.00 | 0.14 | 0.14 | 78 | 1010.7 |
| 20260509014637 | 71 | 163 | 2.0 | 3.0 | 0.00 | 0.14 | 0.14 | 77 | 1010.7 |
| 20260509014133 | 71 | 189 | 1.0 | 2.0 | 0.00 | 0.14 | 0.14 | 77 | 1011.1 |
| 20260509013630 | 71 | 156 | 1.0 | 2.0 | 0.00 | 0.14 | 0.14 | 77 | 1010.9 |
| 20260509013126 | 71 | 26 | 2.0 | 2.0 | 0.00 | 0.14 | 0.14 | 77 | 1010.7 |
| 20260509012623 | 71 | 42 | 1.0 | 2.0 | 0.00 | 0.14 | 0.14 | 77 | 1010.4 |
| 20260509012119 | 72 | 208 | 0.0 | 1.0 | 0.00 | 0.14 | 0.14 | 76 | 1010.1 |
| 20260509011618 | 72 | 74 | 0.0 | 1.0 | 0.00 | 0.14 | 0.14 | 76 | 1009.8 |
| 20260509011114 | 72 | 159 | 1.0 | 1.0 | 0.00 | 0.14 | 0.14 | 75 | 1009.3 |
| 20260509010612 | 73 | 131 | 5.0 | 6.0 | 0.00 | 0.14 | 0.14 | 74 | 1009.0 |
| 20260509010108 | 73 | 117 | 4.0 | 6.0 | 0.00 | 0.14 | 0.14 | 74 | 1008.8 |
| 20260509005606 | 73 | 190 | 5.0 | 6.0 | 0.00 | 0.14 | 0.14 | 74 | 1008.8 |
| 20260509005102 | 73 | 166 | 6.0 | 9.0 | 0.00 | 0.14 | 0.14 | 73 | 1008.9 |
| 20260509004558 | 74 | 166 | 5.0 | 9.0 | 0.00 | 0.14 | 0.14 | 73 | 1009.1 |
| 20260509004055 | 74 | 163 | 7.0 | 9.0 | 0.00 | 0.14 | 0.14 | 72 | 1009.4 |
| 20260509003554 | 75 | 169 | 4.0 | 6.0 | 0.00 | 0.14 | 0.14 | 73 | 1009.7 |
| 20260509003050 | 75 | 146 | 6.0 | 7.0 | 0.00 | 0.14 | 0.14 | 72 | 1009.6 |
| 20260509002548 | 75 | 160 | 4.0 | 4.0 | 0.00 | 0.14 | 0.14 | 72 | 1010.0 |
| 20260509002045 | 76 | 178 | 6.0 | 8.0 | 0.00 | 0.14 | 0.14 | 71 | 1009.8 |
| 20260509001543 | 76 | 155 | 6.0 | 8.0 | 0.00 | 0.14 | 0.14 | 71 | 1009.7 |
| 20260509001038 | 76 | 168 | 6.0 | 7.0 | 0.00 | 0.14 | 0.14 | 71 | 1009.7 |
| 20260509000537 | 76 | 151 | 6.0 | 8.0 | 0.00 | 0.14 | 0.14 | 71 | 1009.4 |
| 20260509000032 | 76 | 162 | 4.0 | 4.0 | 0.00 | 0.14 | 0.14 | 71 | 1009.6 |
| 20260508235531 | 77 | 135 | 7.0 | 9.0 | 0.00 | 0.14 | 0.14 | 70 | 1009.7 |
| 20260508235026 | 77 | 198 | 4.0 | 7.0 | 0.00 | 0.14 | 0.14 | 70 | 1009.8 |
| 20260508234524 | 77 | 216 | 2.0 | 6.0 | 0.00 | 0.14 | 0.14 | 70 | 1009.5 |
| 20260508234021 | 77 | 170 | 4.0 | 6.0 | 0.00 | 0.14 | 0.14 | 70 | 1009.3 |
| 20260508233520 | 77 | 224 | 4.0 | 4.0 | 0.00 | 0.14 | 0.14 | 70 | 1009.3 |
| 20260508233017 | 77 | 166 | 5.0 | 8.0 | 0.00 | 0.14 | 0.14 | 69 | 1009.3 |
| 20260508232514 | 77 | 163 | 4.0 | 6.0 | 0.00 | 0.14 | 0.14 | 69 | 1009.4 |
| 20260508232011 | 78 | 176 | 3.0 | 6.0 | 0.00 | 0.14 | 0.14 | 69 | 1009.5 |
| 20260508231508 | 77 | 186 | 4.0 | 4.0 | 0.00 | 0.14 | 0.14 | 69 | 1009.3 |
| 20260508231005 | 78 | 185 | 6.0 | 7.0 | 0.00 | 0.14 | 0.14 | 69 | 1009.3 |
| 20260508230502 | 78 | 148 | 4.0 | 7.0 | 0.00 | 0.14 | 0.14 | 68 | 1009.5 |
| 20260508225958 | 78 | 172 | 4.0 | 4.0 | 0.00 | 0.14 | 0.14 | 68 | 1009.3 |
| 20260508225456 | 78 | 176 | 5.0 | 8.0 | 0.00 | 0.14 | 0.14 | 68 | 1009.6 |
| 20260508224953 | 78 | 161 | 9.0 | 11.0 | 0.00 | 0.14 | 0.14 | 67 | 1009.4 |
| 20260508224450 | 78 | 190 | 6.0 | 9.0 | 0.00 | 0.14 | 0.14 | 69 | 1009.5 |
| 20260508223948 | 78 | 179 | 6.0 | 8.0 | 0.00 | 0.14 | 0.14 | 68 | 1009.6 |
| 20260508223445 | 78 | 145 | 7.0 | 9.0 | 0.00 | 0.14 | 0.14 | 68 | 1009.6 |
| 20260508222942 | 78 | 152 | 5.0 | 7.0 | 0.00 | 0.14 | 0.14 | 67 | 1009.9 |
| 20260508222440 | 78 | 191 | 6.0 | 7.0 | 0.00 | 0.14 | 0.14 | 67 | 1009.7 |
| 20260508221936 | 78 | 185 | 6.0 | 10.0 | 0.00 | 0.14 | 0.14 | 66 | 1009.8 |
| 20260508221432 | 78 | 177 | 6.0 | 8.0 | 0.00 | 0.14 | 0.14 | 66 | 1010.1 |
| 20260508220928 | 79 | 151 | 8.0 | 10.0 | 0.00 | 0.14 | 0.14 | 67 | 1009.7 |
| 20260508220425 | 79 | 180 | 8.0 | 9.0 | 0.00 | 0.14 | 0.14 | 66 | 1009.9 |
| 20260508215921 | 80 | 166 | 6.0 | 7.0 | 0.00 | 0.14 | 0.14 | 66 | 1009.8 |
| 20260508215419 | 79 | 164 | 6.0 | 7.0 | 0.00 | 0.14 | 0.14 | 65 | 1009.9 |
| 20260508214915 | 79 | 159 | 8.0 | 8.0 | 0.00 | 0.14 | 0.14 | 65 | 1009.9 |
| 20260508214413 | 80 | 236 | 5.0 | 7.0 | 0.00 | 0.14 | 0.14 | 64 | 1010.0 |
| 20260508213908 | 80 | 172 | 4.0 | 6.0 | 0.00 | 0.14 | 0.14 | 62 | 1010.0 |
| 20260508213406 | 81 | 155 | 7.0 | 8.0 | 0.00 | 0.14 | 0.14 | 61 | 1009.9 |
| 20260508212901 | 80 | 195 | 1.0 | 1.0 | 0.00 | 0.14 | 0.14 | 61 | 1010.0 |
| 20260508212358 | 80 | 191 | 5.0 | 6.0 | 0.00 | 0.14 | 0.14 | 61 | 1010.1 |
| 20260508211854 | 79 | 173 | 7.0 | 8.0 | 0.00 | 0.14 | 0.14 | 62 | 1010.0 |
| 20260508211350 | 80 | 179 | 6.0 | 9.0 | 0.00 | 0.14 | 0.14 | 62 | 1010.2 |
| 20260508210848 | 80 | 161 | 8.0 | 10.0 | 0.00 | 0.14 | 0.14 | 61 | 1010.4 |
| 20260508210344 | 80 | 162 | 8.0 | 11.0 | 0.00 | 0.14 | 0.14 | 62 | 1010.4 |
| 20260508205841 | 80 | 177 | 6.0 | 8.0 | 0.00 | 0.14 | 0.14 | 62 | 1010.4 |
| 20260508205337 | 80 | 145 | 6.0 | 8.0 | 0.00 | 0.14 | 0.14 | 63 | 1010.6 |
| 20260508204833 | 81 | 167 | 6.0 | 7.0 | 0.00 | 0.14 | 0.14 | 61 | 1010.7 |
| 20260508204331 | 81 | 213 | 4.0 | 4.0 | 0.00 | 0.14 | 0.14 | 61 | 1010.9 |
| 20260508203826 | 81 | 112 | 6.0 | 9.0 | 0.00 | 0.14 | 0.14 | 62 | 1010.9 |
| 20260508203323 | 80 | 166 | 6.0 | 8.0 | 0.00 | 0.14 | 0.14 | 63 | 1010.9 |
| 20260508202818 | 80 | 182 | 8.0 | 11.0 | 0.00 | 0.14 | 0.14 | 63 | 1010.9 |
| 20260508202316 | 80 | 183 | 8.0 | 9.0 | 0.00 | 0.14 | 0.14 | 63 | 1010.9 |
| 20260508201814 | 80 | 189 | 4.0 | 4.0 | 0.00 | 0.14 | 0.14 | 64 | 1011.1 |
| 20260508201310 | 80 | 145 | 7.0 | 9.0 | 0.00 | 0.14 | 0.14 | 62 | 1011.1 |
| 20260508200807 | 80 | 169 | 3.0 | 3.0 | 0.00 | 0.14 | 0.14 | 60 | 1011.2 |
| 20260508200303 | 80 | 180 | 9.0 | 10.0 | 0.00 | 0.14 | 0.14 | 60 | 1011.3 |
| 20260508195759 | 80 | 192 | 5.0 | 8.0 | 0.00 | 0.14 | 0.14 | 59 | 1011.5 |
| 20260508195256 | 80 | 164 | 11.0 | 14.0 | 0.00 | 0.14 | 0.14 | 59 | 1011.5 |
| 20260508194752 | 79 | 145 | 10.0 | 11.0 | 0.00 | 0.14 | 0.14 | 61 | 1011.4 |
| 20260508194250 | 79 | 231 | 7.0 | 14.0 | 0.00 | 0.14 | 0.14 | 61 | 1011.5 |
| 20260508193747 | 79 | 237 | 5.0 | 7.0 | 0.00 | 0.14 | 0.14 | 61 | 1011.5 |
| 20260508193243 | 79 | 188 | 6.0 | 7.0 | 0.00 | 0.14 | 0.14 | 60 | 1011.6 |
| 20260508192739 | 79 | 146 | 6.0 | 11.0 | 0.00 | 0.14 | 0.14 | 60 | 1011.7 |
| 20260508192237 | 80 | 152 | 9.0 | 13.0 | 0.00 | 0.14 | 0.14 | 60 | 1011.8 |
| 20260508191734 | 80 | 176 | 7.0 | 9.0 | 0.00 | 0.14 | 0.14 | 59 | 1011.8 |
| 20260508191231 | 79 | 175 | 5.0 | 6.0 | 0.00 | 0.14 | 0.14 | 57 | 1011.7 |
| 20260508190728 | 79 | 209 | 5.0 | 7.0 | 0.00 | 0.14 | 0.14 | 57 | 1011.8 |
| 20260508190224 | 78 | 181 | 4.0 | 6.0 | 0.00 | 0.14 | 0.14 | 58 | 1011.9 |
| 20260508185721 | 78 | 211 | 4.0 | 6.0 | 0.00 | 0.14 | 0.14 | 55 | 1011.9 |